Location: Alma
(38.7220°N, 88.9090°W)
Time: 21:03:46
(UTC-06:00)

Vanguard 2 Rocket - Pass Details

Date: 15 November 2019
Orbit: 554 x 3326 km, 32.9° (Epoch: 09 December)

Event Time Altitude Azimuth Distance (km) Brightness Sun altitude
Rises 02:28:05 0° 242° (WSW) 2,938 - -48.4°
Reaches altitude 10° 02:30:07 10° 235° (SW) 2,179 - -48.0°
Maximum altitude 02:34:50 44° 163° (SSE) 1,260 - -47.2°
Exits shadow 02:38:52 23° 105° (ESE) 2,243 9.2 -46.4°
Drops below altitude 10° 02:42:23 10° 95° (E) 3,484 10.4 -45.7°
Sets 02:46:29 0° 90° (E) 4,941 11.4 -45.0°
